Showing default

ARABSAT 5C, 37810

Orbit data source: Space-Track

ARABSAT 5C, 37810 is a payload satellite owned by Arabsat (SA) in GEO that was launched on Wed, 21 Sep 2011 UTC via an ARIANE 5ECA launch vehicle from the French Guiana (FRGUI). Payload-class satellites include a variety of spacecraft equipped with specific instruments for various scientific and technological missions. These include communications satellites like Starlink; space stations such as the ISS; scientific satellites like the Hubble; Earth observation satellites from companies like Planet Labs, Umbra, and HawkEye 360; GPS; miniature CubeSats for education and research; and military/defense satellites.

Not visible in the next 10 days
Identifier
37810, 2011-049B
Orbit
GEO
Last TLE update
4 hours ago
Origin
Manufacturer
Astrium/Toulouse
Mission
Operational Commercial Communications
Bus & Motor
EUROSTAR 3000, R-4D-15
Mass
4,619 kg wet, ~2,000 kg dry
Launch date (UTC)
2011-09-21 (14 years ago)
Launch vehicle
ARIANE 5ECA
Launch site
French Guiana (FRGUI)
Object type
Payload
Rocket body
Debris
Shape & HBR
Box + 2 Pan + 1 Dish, 30.8 m
Radar Cross Section
26.994 m², Large (>1 m²)

Expand to show TLE details & history

TLE from 4 hours ago
0 ARABSAT 5C
1 37810U 11049B   25192.81155922  .00000133  00000-0  00000+0 0  9992
2 37810   0.0463   7.8014 0004134 129.5861 104.7300  1.00269213 50495
Epoch: 2025-07-11T19:28Z
TLE epoch observation values (Epoch: 2025-07-11T19:28:38.716Z)
Latitude
-0.05046°
Longitude
20.04858°
Altitude
35,791.343 km
Speed
3.074 km/s
True Right ascension
16h 08m 40s
True Declination
0° 03' 01"
Sunlit
Object was in daylight at epoch
Visualization orbit readout
Latitude
-0.06767°
Longitude
76.06727°
Altitude
35,803.332 km
Speed
3.073 km/s
Apparent Right ascension
20h 13m 05s
Apparent Declination
-5° 12' 41"
Sunlit
Object is in daylight
Visualization observer readout
Local Sidereal Time
11:32:12
Azimuth
65.722° ENE
Elevation
-33.471°
Doppler factor
1
Orbital elements
Apogee altitude
35,805.818 km
Perigee altitude
35,770.955 km
Semi-major axis
42,166.523 km
Eccentricity
0.00041
Inclination
0.0463°
RAAN
7.8014°
Arg. of periapsis
129.5861°
True anomaly
Unknown
Mean anomaly
104.73°
Eccentric anomaly
Unknown
Mean motion
0.25066 °/min
Orbital period
1,436.19 mins
BSTAR
0
Loading historical data...
37810 neighbors
Loading maneuver chart data...
Loading SW <> Apogee altitude chart data...
Loading historical data...
Loading historical data...
Loading historical data...
Loading historical data...
Loading historical data...
Loading historical data...
Loading historical data...
Other satellites on launch #49 in the year 2011 (2011-09-21 UTC)

ARABSAT 5C Visibility

Observer location: undefined°, undefined°

ARABSAT 5C is likely not visible in the next few days
Span
Click to sort rows by Start time (UTC) header in descending order
Start Az.
Max El. time (UTC)
Max El. Az.
Max El.
End time (UTC)
End Az.
|